This is the latest recevied weather packets stored in our database for station/object N0MR. If no packets are shown the sender has not sent any weather packets the latest 10 day(s).
| Time | Temp. | Humidity | Pressure | Rain* | Wind** | Luminosity | Snow |
|---|---|---|---|---|---|---|---|
| 1788302209 | 24.44° C | 52% | 1010.2 hPa | 0 mm | - | - | - |
| 1788301609 | 24.44° C | 52% | 1010.1 hPa | 0 mm | - | - | - |
| 1788301009 | 24.44° C | 52% | 1010.1 hPa | 0 mm | - | - | - |
| 1788300409 | 24.44° C | 50% | 1010 hPa | 0 mm | - | - | - |
| 1788299809 | 24.44° C | 50% | 1010 hPa | 0 mm | - | - | - |
| 1788299209 | 25° C | 46% | 1009.9 hPa | 0 mm | - | - | - |
| 1788298608 | 25° C | 46% | 1009.9 hPa | 0 mm | - | - | - |
| 1788298008 | 26.67° C | 45% | 1009.9 hPa | 0 mm | - | - | - |
| 1788297408 | 26.67° C | 45% | 1009.9 hPa | 0 mm | - | - | - |
| 1788296808 | 26.11° C | 46% | 1010 hPa | 0 mm | - | - | - |
| 1788296209 | 26.11° C | 46% | 1010 hPa | 0 mm | - | - | - |
| 1788295608 | 26.11° C | 45% | 1010 hPa | 0 mm | - | - | - |
| 1788295009 | 26.11° C | 45% | 1010 hPa | 0 mm | - | - | - |
| 1788294409 | 25.56° C | 49% | 1010.1 hPa | 0 mm | - | - | - |
| 1788293809 | 26.11° C | 47% | 1010.1 hPa | 0 mm | - | - | - |
| 1788293209 | 26.11° C | 47% | 1010.1 hPa | 0 mm | - | - | - |
| 1788292609 | 25° C | 51% | 1010.2 hPa | 0 mm | - | - | - |
| 1788292012 | 25° C | 51% | 1010.2 hPa | 0 mm | - | - | - |
| 1788291409 | 25.56° C | 46% | 1010.1 hPa | 0 mm | - | - | - |
| 1788290809 | 25.56° C | 46% | 1010.1 hPa | 0 mm | - | - | - |
| 1788290212 | 26.11° C | 48% | 1010.4 hPa | 0 mm | - | - | - |
| 1788289610 | 26.11° C | 48% | 1010.4 hPa | 0 mm | - | - | - |
| 1788289009 | 26.11° C | 46% | 1010.5 hPa | 0 mm | - | - | - |
| 1788288410 | 26.11° C | 46% | 1010.5 hPa | 0 mm | - | - | - |
| 1788287810 | 25.56° C | 49% | 1010.6 hPa | 0 mm | - | - | - |
* Rain latest hour (hover to see other rain measurements)
** Current wind speed in m/s (hover to see current wind gust speed)